GIORNO;ORA solare;Livello P. Salute Canal Grande (m)
01/01/2018;01:00;0.28
01/01/2018;02:00;0.17
01/01/2018;03:00;0.12
01/01/2018;04:00;0.16
01/01/2018;05:00;0.30
01/01/2018;06:00;0.49
01/01/2018;07:00;0.66
01/01/2018;08:00;0.81
01/01/2018;09:00;0.91
01/01/2018;10:00;0.97
01/01/2018;11:00;0.93
01/01/2018;12:00;0.79
01/01/2018;13:00;0.59
01/01/2018;14:00;0.40
01/01/2018;15:00;0.20
01/01/2018;16:00;0.05
01/01/2018;17:00;-0.04
01/01/2018;18:00;-0.04
01/01/2018;19:00;0.08
01/01/2018;20:00;0.25
01/01/2018;21:00;0.42
01/01/2018;22:00;0.56
01/01/2018;23:00;0.62
02/01/2018;00:00;0.61
02/01/2018;01:00;0.52
02/01/2018;02:00;0.39
02/01/2018;03:00;0.27
02/01/2018;04:00;0.21
02/01/2018;05:00;0.22
02/01/2018;06:00;0.33
02/01/2018;07:00;0.47
02/01/2018;08:00;0.63
02/01/2018;09:00;0.80
02/01/2018;10:00;0.89
02/01/2018;11:00;0.91
02/01/2018;12:00;0.84
02/01/2018;13:00;0.66
02/01/2018;14:00;0.42
02/01/2018;15:00;0.18
02/01/2018;16:00;-0.04
02/01/2018;17:00;-0.20
02/01/2018;18:00;-0.27
02/01/2018;19:00;-0.23
02/01/2018;20:00;-0.05
02/01/2018;21:00;0.17
02/01/2018;22:00;0.32
02/01/2018;23:00;0.44
03/01/2018;00:00;0.52
03/01/2018;01:00;0.51
03/01/2018;02:00;0.45
03/01/2018;03:00;0.35
03/01/2018;04:00;0.27
03/01/2018;05:00;0.27
03/01/2018;06:00;0.33
03/01/2018;07:00;0.47
03/01/2018;08:00;0.66
03/01/2018;09:00;0.81
03/01/2018;10:00;0.93
03/01/2018;11:00;0.97
03/01/2018;12:00;0.91
03/01/2018;13:00;0.75
03/01/2018;14:00;0.53
03/01/2018;15:00;0.29
03/01/2018;16:00;0.08
03/01/2018;17:00;-0.11
03/01/2018;18:00;-0.22
03/01/2018;19:00;-0.22
03/01/2018;20:00;-0.07
03/01/2018;21:00;0.14
03/01/2018;22:00;0.37
03/01/2018;23:00;0.59
04/01/2018;00:00;0.70
04/01/2018;01:00;0.78
04/01/2018;02:00;0.80
04/01/2018;03:00;0.67
04/01/2018;04:00;0.53
04/01/2018;05:00;0.41
04/01/2018;06:00;0.38
04/01/2018;07:00;0.39
04/01/2018;08:00;0.43
04/01/2018;09:00;0.59
04/01/2018;10:00;0.67
04/01/2018;11:00;0.69
04/01/2018;12:00;0.64
04/01/2018;13:00;0.56
04/01/2018;14:00;0.42
04/01/2018;15:00;0.22
04/01/2018;16:00;0.10
04/01/2018;17:00;-0.04
04/01/2018;18:00;-0.19
04/01/2018;19:00;-0.16
04/01/2018;20:00;-0.01
04/01/2018;21:00;0.19
04/01/2018;22:00;0.40
04/01/2018;23:00;0.59
05/01/2018;00:00;0.76
05/01/2018;01:00;0.87
05/01/2018;02:00;0.88
05/01/2018;03:00;0.85
05/01/2018;04:00;0.73
05/01/2018;05:00;0.57
05/01/2018;06:00;0.45
05/01/2018;07:00;0.37
05/01/2018;08:00;0.34
05/01/2018;09:00;0.40
05/01/2018;10:00;0.50
05/01/2018;11:00;0.63
05/01/2018;12:00;0.69
05/01/2018;13:00;0.68
05/01/2018;14:00;0.62
05/01/2018;15:00;0.47
05/01/2018;16:00;0.33
05/01/2018;17:00;0.17
05/01/2018;18:00;0.06
05/01/2018;19:00;0.03
05/01/2018;20:00;0.06
05/01/2018;21:00;0.22
05/01/2018;22:00;0.41
05/01/2018;23:00;0.60
06/01/2018;00:00;0.76
06/01/2018;01:00;0.86
06/01/2018;02:00;0.89
06/01/2018;03:00;0.86
06/01/2018;04:00;0.72
06/01/2018;05:00;0.53
06/01/2018;06:00;0.37
06/01/2018;07:00;0.26
06/01/2018;08:00;0.19
06/01/2018;09:00;0.25
06/01/2018;10:00;0.37
06/01/2018;11:00;0.52
06/01/2018;12:00;0.62
06/01/2018;13:00;0.67
06/01/2018;14:00;0.67
06/01/2018;15:00;0.57
06/01/2018;16:00;0.42
06/01/2018;17:00;0.29
06/01/2018;18:00;0.19
06/01/2018;19:00;0.12
06/01/2018;20:00;0.13
06/01/2018;21:00;0.24
06/01/2018;22:00;0.36
06/01/2018;23:00;0.51
07/01/2018;00:00;0.63
07/01/2018;01:00;0.71
07/01/2018;02:00;0.73
07/01/2018;03:00;0.67
07/01/2018;04:00;0.56
07/01/2018;05:00;0.43
07/01/2018;06:00;0.32
07/01/2018;07:00;0.24
07/01/2018;08:00;0.22
07/01/2018;09:00;0.24
07/01/2018;10:00;0.34
07/01/2018;11:00;0.44
07/01/2018;12:00;0.53
07/01/2018;13:00;0.58
07/01/2018;14:00;0.59
07/01/2018;15:00;0.56
07/01/2018;16:00;0.48
07/01/2018;17:00;0.41
07/01/2018;18:00;0.34
07/01/2018;19:00;0.26
07/01/2018;20:00;0.21
07/01/2018;21:00;0.20
07/01/2018;22:00;0.23
07/01/2018;23:00;0.32
08/01/2018;00:00;0.43
08/01/2018;01:00;0.52
08/01/2018;02:00;0.61
08/01/2018;03:00;0.64
08/01/2018;04:00;0.64
08/01/2018;05:00;0.59
08/01/2018;06:00;0.50
08/01/2018;07:00;0.40
08/01/2018;08:00;0.34
08/01/2018;09:00;0.30
08/01/2018;10:00;0.33
08/01/2018;11:00;0.41
08/01/2018;12:00;0.49
08/01/2018;13:00;0.56
08/01/2018;14:00;0.60
08/01/2018;15:00;0.59
08/01/2018;16:00;0.52
08/01/2018;17:00;0.43
08/01/2018;18:00;0.36
08/01/2018;19:00;0.31
08/01/2018;20:00;0.25
08/01/2018;21:00;0.24
08/01/2018;22:00;0.26
08/01/2018;23:00;0.29
09/01/2018;00:00;0.37
09/01/2018;01:00;0.51
09/01/2018;02:00;0.64
09/01/2018;03:00;0.75
09/01/2018;04:00;0.82
09/01/2018;05:00;0.86
09/01/2018;06:00;0.88
09/01/2018;07:00;0.82
09/01/2018;08:00;0.75
09/01/2018;09:00;0.69
09/01/2018;10:00;0.65
09/01/2018;11:00;0.60
09/01/2018;12:00;0.60
09/01/2018;13:00;0.61
09/01/2018;14:00;0.57
09/01/2018;15:00;0.57
09/01/2018;16:00;0.58
09/01/2018;17:00;0.56
09/01/2018;18:00;0.48
09/01/2018;19:00;0.35
09/01/2018;20:00;0.31
09/01/2018;21:00;0.31
09/01/2018;22:00;0.27
09/01/2018;23:00;0.26
10/01/2018;00:00;0.29
10/01/2018;01:00;0.39
10/01/2018;02:00;0.47
10/01/2018;03:00;0.53
10/01/2018;04:00;0.62
10/01/2018;05:00;0.66
10/01/2018;06:00;0.69
10/01/2018;07:00;0.66
10/01/2018;08:00;0.61
10/01/2018;09:00;0.52
10/01/2018;10:00;0.40
10/01/2018;11:00;0.33
10/01/2018;12:00;0.26
10/01/2018;13:00;0.18
10/01/2018;14:00;0.16
10/01/2018;15:00;0.19
10/01/2018;16:00;0.22
10/01/2018;17:00;0.27
10/01/2018;18:00;0.33
10/01/2018;19:00;0.36
10/01/2018;20:00;0.35
10/01/2018;21:00;0.31
10/01/2018;22:00;0.26
10/01/2018;23:00;0.23
11/01/2018;00:00;0.22
11/01/2018;01:00;0.25
11/01/2018;02:00;0.33
11/01/2018;03:00;0.42
11/01/2018;04:00;0.52
11/01/2018;05:00;0.60
11/01/2018;06:00;0.65
11/01/2018;07:00;0.65
11/01/2018;08:00;0.62
11/01/2018;09:00;0.53
11/01/2018;10:00;0.42
11/01/2018;11:00;0.29
11/01/2018;12:00;0.15
11/01/2018;13:00;0.06
11/01/2018;14:00;0.00
11/01/2018;15:00;0.00
11/01/2018;16:00;0.06
11/01/2018;17:00;0.19
11/01/2018;18:00;0.32
11/01/2018;19:00;0.41
11/01/2018;20:00;0.46
11/01/2018;21:00;0.47
11/01/2018;22:00;0.44
11/01/2018;23:00;0.39
12/01/2018;00:00;0.36
12/01/2018;01:00;0.36
12/01/2018;02:00;0.39
12/01/2018;03:00;0.47
12/01/2018;04:00;0.57
12/01/2018;05:00;0.67
12/01/2018;06:00;0.74
12/01/2018;07:00;0.76
12/01/2018;08:00;0.74
12/01/2018;09:00;0.67
12/01/2018;10:00;0.54
12/01/2018;11:00;0.39
12/01/2018;12:00;0.25
12/01/2018;13:00;0.13
12/01/2018;14:00;0.04
12/01/2018;15:00;0.01
12/01/2018;16:00;0.06
12/01/2018;17:00;0.14
12/01/2018;18:00;0.27
12/01/2018;19:00;0.40
12/01/2018;20:00;0.47
12/01/2018;21:00;0.51
12/01/2018;22:00;0.52
12/01/2018;23:00;0.47
13/01/2018;00:00;0.41
13/01/2018;01:00;0.35
13/01/2018;02:00;0.33
13/01/2018;03:00;0.37
13/01/2018;04:00;0.45
13/01/2018;05:00;0.53
13/01/2018;06:00;0.60
13/01/2018;07:00;0.65
13/01/2018;08:00;0.66
13/01/2018;09:00;0.62
13/01/2018;10:00;0.54
13/01/2018;11:00;0.42
13/01/2018;12:00;0.27
13/01/2018;13:00;0.12
13/01/2018;14:00;-0.01
13/01/2018;15:00;-0.10
13/01/2018;16:00;-0.10
13/01/2018;17:00;-0.04
13/01/2018;18:00;0.12
13/01/2018;19:00;0.29
13/01/2018;20:00;0.44
13/01/2018;21:00;0.55
13/01/2018;22:00;0.60
13/01/2018;23:00;0.59
14/01/2018;00:00;0.51
14/01/2018;01:00;0.39
14/01/2018;02:00;0.31
14/01/2018;03:00;0.27
14/01/2018;04:00;0.30
14/01/2018;05:00;0.40
14/01/2018;06:00;0.54
14/01/2018;07:00;0.65
14/01/2018;08:00;0.73
14/01/2018;09:00;0.75
14/01/2018;10:00;0.67
14/01/2018;11:00;0.54
14/01/2018;12:00;0.39
14/01/2018;13:00;0.22
14/01/2018;14:00;0.07
14/01/2018;15:00;-0.04
14/01/2018;16:00;-0.08
14/01/2018;17:00;-0.05
14/01/2018;18:00;0.08
14/01/2018;19:00;0.25
14/01/2018;20:00;0.42
14/01/2018;21:00;0.52
14/01/2018;22:00;0.61
14/01/2018;23:00;0.64
15/01/2018;00:00;0.58
15/01/2018;01:00;0.48
15/01/2018;02:00;0.37
15/01/2018;03:00;0.30
15/01/2018;04:00;0.28
15/01/2018;05:00;0.34
15/01/2018;06:00;0.46
15/01/2018;07:00;0.59
15/01/2018;08:00;0.70
15/01/2018;09:00;0.77
15/01/2018;10:00;0.75
15/01/2018;11:00;0.66
15/01/2018;12:00;0.50
15/01/2018;13:00;0.32
15/01/2018;14:00;0.13
15/01/2018;15:00;-0.03
15/01/2018;16:00;-0.13
15/01/2018;17:00;-0.13
15/01/2018;18:00;-0.02
15/01/2018;19:00;0.16
15/01/2018;20:00;0.35
15/01/2018;21:00;0.51
15/01/2018;22:00;0.63
15/01/2018;23:00;0.68
16/01/2018;00:00;0.66
16/01/2018;01:00;0.56
16/01/2018;02:00;0.43
16/01/2018;03:00;0.33
16/01/2018;04:00;0.30
16/01/2018;05:00;0.35
16/01/2018;06:00;0.48
16/01/2018;07:00;0.62
16/01/2018;08:00;0.76
16/01/2018;09:00;0.84
16/01/2018;10:00;0.87
16/01/2018;11:00;0.83
16/01/2018;12:00;0.66
16/01/2018;13:00;0.48
16/01/2018;14:00;0.29
16/01/2018;15:00;0.11
16/01/2018;16:00;-0.03
16/01/2018;17:00;-0.08
16/01/2018;18:00;-0.03
16/01/2018;19:00;0.14
16/01/2018;20:00;0.30
16/01/2018;21:00;0.48
16/01/2018;22:00;0.61
16/01/2018;23:00;0.69
17/01/2018;00:00;0.71
17/01/2018;01:00;0.66
17/01/2018;02:00;0.54
17/01/2018;03:00;0.42
17/01/2018;04:00;0.35
17/01/2018;05:00;0.35
17/01/2018;06:00;0.43
17/01/2018;07:00;0.57
17/01/2018;08:00;0.72
17/01/2018;09:00;0.81
17/01/2018;10:00;0.85
17/01/2018;11:00;0.82
17/01/2018;12:00;0.73
17/01/2018;13:00;0.52
17/01/2018;14:00;0.32
17/01/2018;15:00;0.09
17/01/2018;16:00;-0.12
17/01/2018;17:00;-0.28
17/01/2018;18:00;-0.41
17/01/2018;19:00;-0.37
17/01/2018;20:00;-0.21
17/01/2018;21:00;0.00
17/01/2018;22:00;0.13
17/01/2018;23:00;0.22
18/01/2018;00:00;0.25
18/01/2018;01:00;0.23
18/01/2018;02:00;0.16
18/01/2018;03:00;0.02
18/01/2018;04:00;-0.06
18/01/2018;05:00;-0.03
18/01/2018;06:00;0.07
18/01/2018;07:00;0.24
18/01/2018;08:00;0.42
18/01/2018;09:00;0.57
18/01/2018;10:00;0.67
18/01/2018;11:00;0.76
18/01/2018;12:00;0.75
18/01/2018;13:00;0.64
18/01/2018;14:00;0.44
18/01/2018;15:00;0.21
18/01/2018;16:00;0.00
18/01/2018;17:00;-0.15
18/01/2018;18:00;-0.21
18/01/2018;19:00;-0.16
18/01/2018;20:00;-0.02
18/01/2018;21:00;0.19
18/01/2018;22:00;0.37
18/01/2018;23:00;0.48
19/01/2018;00:00;0.55
19/01/2018;01:00;0.56
19/01/2018;02:00;0.54
19/01/2018;03:00;0.41
19/01/2018;04:00;0.31
19/01/2018;05:00;0.26
19/01/2018;06:00;0.26
19/01/2018;07:00;0.33
19/01/2018;08:00;0.46
19/01/2018;09:00;0.63
19/01/2018;10:00;0.76
19/01/2018;11:00;0.82
19/01/2018;12:00;0.80
19/01/2018;13:00;0.67
19/01/2018;14:00;0.47
19/01/2018;15:00;0.26
19/01/2018;16:00;0.05
19/01/2018;17:00;-0.11
19/01/2018;18:00;-0.20
19/01/2018;19:00;-0.19
19/01/2018;20:00;-0.07
19/01/2018;21:00;0.11
19/01/2018;22:00;0.28
19/01/2018;23:00;0.41
20/01/2018;00:00;0.53
20/01/2018;01:00;0.60
20/01/2018;02:00;0.57
20/01/2018;03:00;0.46
20/01/2018;04:00;0.33
20/01/2018;05:00;0.23
20/01/2018;06:00;0.19
20/01/2018;07:00;0.21
20/01/2018;08:00;0.31
20/01/2018;09:00;0.46
20/01/2018;10:00;0.58
20/01/2018;11:00;0.64
20/01/2018;12:00;0.67
20/01/2018;13:00;0.61
20/01/2018;14:00;0.45
20/01/2018;15:00;0.27
20/01/2018;16:00;0.09
20/01/2018;17:00;-0.07
20/01/2018;18:00;-0.20
20/01/2018;19:00;-0.25
20/01/2018;20:00;-0.16
20/01/2018;21:00;0.02
20/01/2018;22:00;0.22
20/01/2018;23:00;0.39
21/01/2018;00:00;0.53
21/01/2018;01:00;0.65
21/01/2018;02:00;0.70
21/01/2018;03:00;0.68
21/01/2018;04:00;0.61
21/01/2018;05:00;0.50
21/01/2018;06:00;0.42
21/01/2018;07:00;0.36
21/01/2018;08:00;0.38
21/01/2018;09:00;0.47
21/01/2018;10:00;0.57
21/01/2018;11:00;0.64
21/01/2018;12:00;0.69
21/01/2018;13:00;0.65
21/01/2018;14:00;0.50
21/01/2018;15:00;0.29
21/01/2018;16:00;0.09
21/01/2018;17:00;-0.12
21/01/2018;18:00;-0.28
21/01/2018;19:00;-0.36
21/01/2018;20:00;-0.33
21/01/2018;21:00;-0.18
21/01/2018;22:00;0.01
21/01/2018;23:00;0.17
22/01/2018;00:00;0.33
22/01/2018;01:00;0.46
22/01/2018;02:00;0.54
22/01/2018;03:00;0.57
22/01/2018;04:00;0.52
22/01/2018;05:00;0.42
22/01/2018;06:00;0.30
22/01/2018;07:00;0.22
22/01/2018;08:00;0.19
22/01/2018;09:00;0.22
22/01/2018;10:00;0.29
22/01/2018;11:00;0.39
22/01/2018;12:00;0.47
22/01/2018;13:00;0.48
22/01/2018;14:00;0.41
22/01/2018;15:00;0.27
22/01/2018;16:00;0.12
22/01/2018;17:00;-0.03
22/01/2018;18:00;-0.15
22/01/2018;19:00;-0.23
22/01/2018;20:00;-0.21
22/01/2018;21:00;-0.08
22/01/2018;22:00;0.10
22/01/2018;23:00;0.28
23/01/2018;00:00;0.44
23/01/2018;01:00;0.58
23/01/2018;02:00;0.66
23/01/2018;03:00;0.69
23/01/2018;04:00;0.63
23/01/2018;05:00;0.53
23/01/2018;06:00;0.39
23/01/2018;07:00;0.28
23/01/2018;08:00;0.21
23/01/2018;09:00;0.18
23/01/2018;10:00;0.19
23/01/2018;11:00;0.25
23/01/2018;12:00;0.30
23/01/2018;13:00;0.31
23/01/2018;14:00;0.28
23/01/2018;15:00;0.17
23/01/2018;16:00;0.06
23/01/2018;17:00;-0.03
23/01/2018;18:00;-0.11
23/01/2018;19:00;-0.17
23/01/2018;20:00;-0.15
23/01/2018;21:00;-0.03
23/01/2018;22:00;0.09
23/01/2018;23:00;0.23
24/01/2018;00:00;0.36
24/01/2018;01:00;0.45
24/01/2018;02:00;0.52
24/01/2018;03:00;0.54
24/01/2018;04:00;0.52
24/01/2018;05:00;0.46
24/01/2018;06:00;0.39
24/01/2018;07:00;0.30
24/01/2018;08:00;0.19
24/01/2018;09:00;0.10
24/01/2018;10:00;0.02
24/01/2018;11:00;0.00
24/01/2018;12:00;0.01
24/01/2018;13:00;0.06
24/01/2018;14:00;0.10
24/01/2018;15:00;0.13
24/01/2018;16:00;0.12
24/01/2018;17:00;0.09
24/01/2018;18:00;0.04
24/01/2018;19:00;0.02
24/01/2018;20:00;0.03
24/01/2018;21:00;0.05
24/01/2018;22:00;0.09
24/01/2018;23:00;0.15
25/01/2018;00:00;0.24
25/01/2018;01:00;0.33
25/01/2018;02:00;0.42
25/01/2018;03:00;0.50
25/01/2018;04:00;0.53
25/01/2018;05:00;0.52
25/01/2018;06:00;0.45
25/01/2018;07:00;0.34
25/01/2018;08:00;0.23
25/01/2018;09:00;0.11
25/01/2018;10:00;0.00
25/01/2018;11:00;-0.06
25/01/2018;12:00;-0.10
25/01/2018;13:00;-0.10
25/01/2018;14:00;-0.05
25/01/2018;15:00;0.04
25/01/2018;16:00;0.12
25/01/2018;17:00;0.16
25/01/2018;18:00;0.18
25/01/2018;19:00;0.17
25/01/2018;20:00;0.14
25/01/2018;21:00;0.11
25/01/2018;22:00;0.10
25/01/2018;23:00;0.13
26/01/2018;00:00;0.19
26/01/2018;01:00;0.28
26/01/2018;02:00;0.37
26/01/2018;03:00;0.44
26/01/2018;04:00;0.49
26/01/2018;05:00;0.51
26/01/2018;06:00;0.48
26/01/2018;07:00;0.40
26/01/2018;08:00;0.29
26/01/2018;09:00;0.17
26/01/2018;10:00;0.04
26/01/2018;11:00;-0.07
26/01/2018;12:00;-0.14
26/01/2018;13:00;-0.16
26/01/2018;14:00;-0.13
26/01/2018;15:00;-0.05
26/01/2018;16:00;0.05
26/01/2018;17:00;0.15
26/01/2018;18:00;0.23
26/01/2018;19:00;0.26
26/01/2018;20:00;0.27
26/01/2018;21:00;0.25
26/01/2018;22:00;0.21
26/01/2018;23:00;0.18
27/01/2018;00:00;0.17
27/01/2018;01:00;0.20
27/01/2018;02:00;0.24
27/01/2018;03:00;0.30
27/01/2018;04:00;0.37
27/01/2018;05:00;0.42
27/01/2018;06:00;0.46
27/01/2018;07:00;0.46
27/01/2018;08:00;0.41
27/01/2018;09:00;0.31
27/01/2018;10:00;0.18
27/01/2018;11:00;0.04
27/01/2018;12:00;-0.10
27/01/2018;13:00;-0.20
27/01/2018;14:00;-0.25
27/01/2018;15:00;-0.24
27/01/2018;16:00;-0.15
27/01/2018;17:00;-0.02
27/01/2018;18:00;0.12
27/01/2018;19:00;0.23
27/01/2018;20:00;0.30
27/01/2018;21:00;0.33
27/01/2018;22:00;0.28
27/01/2018;23:00;0.20
28/01/2018;00:00;0.09
28/01/2018;01:00;0.02
28/01/2018;02:00;0.00
28/01/2018;03:00;0.04
28/01/2018;04:00;0.13
28/01/2018;05:00;0.26
28/01/2018;06:00;0.38
28/01/2018;07:00;0.44
28/01/2018;08:00;0.46
28/01/2018;09:00;0.43
28/01/2018;10:00;0.30
28/01/2018;11:00;0.12
28/01/2018;12:00;-0.06
28/01/2018;13:00;-0.23
28/01/2018;14:00;-0.37
28/01/2018;15:00;-0.44
28/01/2018;16:00;-0.40
28/01/2018;17:00;-0.24
28/01/2018;18:00;-0.04
28/01/2018;19:00;0.14
28/01/2018;20:00;0.26
28/01/2018;21:00;0.32
28/01/2018;22:00;0.32
28/01/2018;23:00;0.24
29/01/2018;00:00;0.12
29/01/2018;01:00;0.01
29/01/2018;02:00;-0.05
29/01/2018;03:00;-0.05
29/01/2018;04:00;0.02
29/01/2018;05:00;0.15
29/01/2018;06:00;0.29
29/01/2018;07:00;0.40
29/01/2018;08:00;0.49
29/01/2018;09:00;0.52
29/01/2018;10:00;0.44
29/01/2018;11:00;0.29
29/01/2018;12:00;0.08
29/01/2018;13:00;-0.14
29/01/2018;14:00;-0.33
29/01/2018;15:00;-0.47
29/01/2018;16:00;-0.52
29/01/2018;17:00;-0.43
29/01/2018;18:00;-0.22
29/01/2018;19:00;0.00
29/01/2018;20:00;0.17
29/01/2018;21:00;0.29
29/01/2018;22:00;0.34
29/01/2018;23:00;0.33
30/01/2018;00:00;0.22
30/01/2018;01:00;0.09
30/01/2018;02:00;-0.02
30/01/2018;03:00;-0.10
30/01/2018;04:00;-0.09
30/01/2018;05:00;0.01
30/01/2018;06:00;0.17
30/01/2018;07:00;0.33
30/01/2018;08:00;0.45
30/01/2018;09:00;0.52
30/01/2018;10:00;0.50
30/01/2018;11:00;0.38
30/01/2018;12:00;0.19
30/01/2018;13:00;-0.03
30/01/2018;14:00;-0.26
30/01/2018;15:00;-0.46
30/01/2018;16:00;-0.61
30/01/2018;17:00;-0.64
30/01/2018;18:00;-0.52
30/01/2018;19:00;-0.30
30/01/2018;20:00;-0.06
30/01/2018;21:00;0.14
30/01/2018;22:00;0.27
30/01/2018;23:00;0.33
31/01/2018;00:00;0.28
31/01/2018;01:00;0.16
31/01/2018;02:00;0.01
31/01/2018;03:00;-0.12
31/01/2018;04:00;-0.17
31/01/2018;05:00;-0.15
31/01/2018;06:00;-0.01
31/01/2018;07:00;0.17
31/01/2018;08:00;0.34
31/01/2018;09:00;0.46
31/01/2018;10:00;0.51
31/01/2018;11:00;0.49
31/01/2018;12:00;0.34
31/01/2018;13:00;0.13
31/01/2018;14:00;-0.12
31/01/2018;15:00;-0.35
31/01/2018;16:00;-0.56
31/01/2018;17:00;-0.66
31/01/2018;18:00;-0.58
31/01/2018;19:00;-0.37
31/01/2018;20:00;-0.10
31/01/2018;21:00;0.13
31/01/2018;22:00;0.30
31/01/2018;23:00;0.42
01/02/2018;00:00;0.46
01/02/2018;01:00;0.40
01/02/2018;02:00;0.27
01/02/2018;03:00;0.12
01/02/2018;04:00;0.01
01/02/2018;05:00;-0.04
01/02/2018;06:00;0.01
01/02/2018;07:00;0.15
01/02/2018;08:00;0.34
01/02/2018;09:00;0.49
01/02/2018;10:00;0.60
01/02/2018;11:00;0.68
01/02/2018;12:00;0.61
01/02/2018;13:00;0.44
01/02/2018;14:00;0.23
01/02/2018;15:00;-0.01
01/02/2018;16:00;-0.22
01/02/2018;17:00;-0.38
01/02/2018;18:00;-0.41
01/02/2018;19:00;-0.28
01/02/2018;20:00;-0.04
01/02/2018;21:00;0.23
01/02/2018;22:00;0.45
01/02/2018;23:00;0.63
02/02/2018;00:00;0.73
02/02/2018;01:00;0.73
02/02/2018;02:00;0.61
02/02/2018;03:00;0.41
02/02/2018;04:00;0.24
02/02/2018;05:00;0.12
02/02/2018;06:00;0.07
02/02/2018;07:00;0.11
02/02/2018;08:00;0.23
02/02/2018;09:00;0.39
02/02/2018;10:00;0.51
02/02/2018;11:00;0.57
02/02/2018;12:00;0.52
02/02/2018;13:00;0.39
02/02/2018;14:00;0.22
02/02/2018;15:00;0.03
02/02/2018;16:00;-0.12
02/02/2018;17:00;-0.23
02/02/2018;18:00;-0.28
02/02/2018;19:00;-0.22
02/02/2018;20:00;-0.04
02/02/2018;21:00;0.20
02/02/2018;22:00;0.39
02/02/2018;23:00;0.55
03/02/2018;00:00;0.67
03/02/2018;01:00;0.69
03/02/2018;02:00;0.62
03/02/2018;03:00;0.45
03/02/2018;04:00;0.30
03/02/2018;05:00;0.14
03/02/2018;06:00;0.08
03/02/2018;07:00;0.12
03/02/2018;08:00;0.25
03/02/2018;09:00;0.35
03/02/2018;10:00;0.46
03/02/2018;11:00;0.62
03/02/2018;12:00;0.75
03/02/2018;13:00;0.75
03/02/2018;14:00;0.70
03/02/2018;15:00;0.54
03/02/2018;16:00;0.34
03/02/2018;17:00;0.23
03/02/2018;18:00;0.06
03/02/2018;19:00;-0.07
03/02/2018;20:00;-0.10
03/02/2018;21:00;-0.03
03/02/2018;22:00;0.14
03/02/2018;23:00;0.32
04/02/2018;00:00;0.41
04/02/2018;01:00;0.46
04/02/2018;02:00;0.42
04/02/2018;03:00;0.32
04/02/2018;04:00;0.19
04/02/2018;05:00;0.07
04/02/2018;06:00;0.00
04/02/2018;07:00;0.02
04/02/2018;08:00;0.16
04/02/2018;09:00;0.34
04/02/2018;10:00;0.49
04/02/2018;11:00;0.59
04/02/2018;12:00;0.65
04/02/2018;13:00;0.64
04/02/2018;14:00;0.52
04/02/2018;15:00;0.37
04/02/2018;16:00;0.19
04/02/2018;17:00;0.00
04/02/2018;18:00;-0.15
04/02/2018;19:00;-0.24
04/02/2018;20:00;-0.25
04/02/2018;21:00;-0.17
04/02/2018;22:00;-0.04
04/02/2018;23:00;0.12
05/02/2018;00:00;0.26
05/02/2018;01:00;0.37
05/02/2018;02:00;0.43
05/02/2018;03:00;0.46
05/02/2018;04:00;0.42
05/02/2018;05:00;0.34
05/02/2018;06:00;0.25
05/02/2018;07:00;0.18
05/02/2018;08:00;0.13
05/02/2018;09:00;0.12
05/02/2018;10:00;0.18
05/02/2018;11:00;0.27
05/02/2018;12:00;0.35
05/02/2018;13:00;0.37
05/02/2018;14:00;0.32
05/02/2018;15:00;0.22
05/02/2018;16:00;0.06
05/02/2018;17:00;-0.08
05/02/2018;18:00;-0.21
05/02/2018;19:00;-0.29
05/02/2018;20:00;-0.30
05/02/2018;21:00;-0.22
05/02/2018;22:00;-0.06
05/02/2018;23:00;0.12
06/02/2018;00:00;0.28
06/02/2018;01:00;0.42
06/02/2018;02:00;0.53
06/02/2018;03:00;0.58
06/02/2018;04:00;0.55
06/02/2018;05:00;0.45
06/02/2018;06:00;0.32
06/02/2018;07:00;0.20
06/02/2018;08:00;0.11
06/02/2018;09:00;0.09
06/02/2018;10:00;0.11
06/02/2018;11:00;0.16
06/02/2018;12:00;0.23
06/02/2018;13:00;0.28
06/02/2018;14:00;0.28
06/02/2018;15:00;0.25
06/02/2018;16:00;0.19
06/02/2018;17:00;0.12
06/02/2018;18:00;0.09
06/02/2018;19:00;0.07
06/02/2018;20:00;0.14
06/02/2018;21:00;0.23
06/02/2018;22:00;0.33
06/02/2018;23:00;0.44
07/02/2018;00:00;0.56
07/02/2018;01:00;0.69
07/02/2018;02:00;0.77
07/02/2018;03:00;0.81
07/02/2018;04:00;0.79
07/02/2018;05:00;0.70
07/02/2018;06:00;0.59
07/02/2018;07:00;0.46
07/02/2018;08:00;0.35
07/02/2018;09:00;0.25
07/02/2018;10:00;0.19
07/02/2018;11:00;0.17
07/02/2018;12:00;0.15
07/02/2018;13:00;0.11
07/02/2018;14:00;0.10
07/02/2018;15:00;0.11
07/02/2018;16:00;0.10
07/02/2018;17:00;0.13
07/02/2018;18:00;0.18
07/02/2018;19:00;0.26
07/02/2018;20:00;0.32
07/02/2018;21:00;0.40
07/02/2018;22:00;0.49
07/02/2018;23:00;0.55
08/02/2018;00:00;0.59
08/02/2018;01:00;0.63
08/02/2018;02:00;0.64
08/02/2018;03:00;0.65
08/02/2018;04:00;0.61
08/02/2018;05:00;0.55
08/02/2018;06:00;0.46
08/02/2018;07:00;0.36
08/02/2018;08:00;0.23
08/02/2018;09:00;0.15
08/02/2018;10:00;0.06
08/02/2018;11:00;-0.01
08/02/2018;12:00;-0.05
08/02/2018;13:00;-0.02
08/02/2018;14:00;0.04
08/02/2018;15:00;0.11
08/02/2018;16:00;0.20
08/02/2018;17:00;0.29
08/02/2018;18:00;0.37
08/02/2018;19:00;0.45
08/02/2018;20:00;0.49
08/02/2018;21:00;0.47
08/02/2018;22:00;0.41
08/02/2018;23:00;0.35
09/02/2018;00:00;0.33
09/02/2018;01:00;0.32
09/02/2018;02:00;0.35
09/02/2018;03:00;0.39
09/02/2018;04:00;0.41
09/02/2018;05:00;0.40
09/02/2018;06:00;0.37
09/02/2018;07:00;0.31
09/02/2018;08:00;0.24
09/02/2018;09:00;0.15
09/02/2018;10:00;0.07
09/02/2018;11:00;0.00
09/02/2018;12:00;-0.04
09/02/2018;13:00;-0.03
09/02/2018;14:00;0.02
09/02/2018;15:00;0.11
09/02/2018;16:00;0.22
09/02/2018;17:00;0.32
09/02/2018;18:00;0.40
09/02/2018;19:00;0.43
09/02/2018;20:00;0.43
09/02/2018;21:00;0.40
09/02/2018;22:00;0.34
09/02/2018;23:00;0.27
10/02/2018;00:00;0.22
10/02/2018;01:00;0.19
10/02/2018;02:00;0.17
10/02/2018;03:00;0.19
10/02/2018;04:00;0.25
10/02/2018;05:00;0.30
10/02/2018;06:00;0.33
10/02/2018;07:00;0.33
10/02/2018;08:00;0.28
10/02/2018;09:00;0.21
10/02/2018;10:00;0.13
10/02/2018;11:00;0.06
10/02/2018;12:00;0.01
10/02/2018;13:00;0.00
10/02/2018;14:00;0.04
10/02/2018;15:00;0.08
10/02/2018;16:00;0.13
10/02/2018;17:00;0.19
10/02/2018;18:00;0.26
10/02/2018;19:00;0.32
10/02/2018;20:00;0.37
10/02/2018;21:00;0.40
10/02/2018;22:00;0.37
10/02/2018;23:00;0.32
11/02/2018;00:00;0.25
11/02/2018;01:00;0.20
11/02/2018;02:00;0.18
11/02/2018;03:00;0.22
11/02/2018;04:00;0.29
11/02/2018;05:00;0.35
11/02/2018;06:00;0.42
11/02/2018;07:00;0.48
11/02/2018;08:00;0.52
11/02/2018;09:00;0.51
11/02/2018;10:00;0.45
11/02/2018;11:00;0.37
11/02/2018;12:00;0.26
11/02/2018;13:00;0.14
11/02/2018;14:00;0.03
11/02/2018;15:00;-0.05
11/02/2018;16:00;-0.07
11/02/2018;17:00;-0.01
11/02/2018;18:00;0.12
11/02/2018;19:00;0.26
11/02/2018;20:00;0.39
11/02/2018;21:00;0.47
11/02/2018;22:00;0.51
11/02/2018;23:00;0.48
12/02/2018;00:00;0.38
12/02/2018;01:00;0.28
12/02/2018;02:00;0.22
12/02/2018;03:00;0.21
12/02/2018;04:00;0.28
12/02/2018;05:00;0.40
12/02/2018;06:00;0.53
12/02/2018;07:00;0.64
12/02/2018;08:00;0.70
12/02/2018;09:00;0.73
12/02/2018;10:00;0.68
12/02/2018;11:00;0.58
12/02/2018;12:00;0.40
12/02/2018;13:00;0.23
12/02/2018;14:00;0.07
12/02/2018;15:00;-0.04
12/02/2018;16:00;-0.06
12/02/2018;17:00;-0.04
12/02/2018;18:00;0.10
12/02/2018;19:00;0.27
12/02/2018;20:00;0.41
12/02/2018;21:00;0.51
12/02/2018;22:00;0.60
12/02/2018;23:00;0.65
13/02/2018;00:00;0.58
13/02/2018;01:00;0.45
13/02/2018;02:00;0.34